Hourly Data Report for September 05, 2017

All times are specified in Local Standard Time (LST). Add 1 hour to adjust for Daylight Saving Time where and when it is observed.

ALERT CLIMATE
NUNAVUT

82°30'00.000" N
62°20'00.000" W
65.40 m
2400305
71355
ZLT

Download Data

Hourly Data (September 2017)
Hourly Data Report for September 5, 2017
Temp Definition
°C
Dew Point Temp Definition
°C
Rel Hum Definition
%
Wind Dir Definition
10's deg

Wind Spd Definition
km/h
Visibility Definition
km
Stn Press Definition
kPa
Hmdx Definition


Wind Chill Definition


Weather Definition


TIME
00:00 -6.2 -6.7 96 1 12   100.94   -11 LegendNANA
01:00 -6.2 -6.7 97 1 14   100.90   -12 LegendNANA
02:00 -6.2 -6.6 96 1 13   100.87   -12 LegendNANA
03:00 -6.3 -6.8 96 1 14   100.85   -12 LegendNANA
04:00 -6.7 -7.2 96 1 12   100.86   -12 LegendNANA
05:00 -6.7 -7.2 96 1 12   100.85   -12 LegendNANA
06:00 -6.7 -7.3 96 36 9   100.85   -11 LegendNANA
07:00 -6.7 -7.3 96 3 5   100.86   -9 LegendNANA
08:00 -6.7 -7.2 96 1 5   100.86   -9 LegendNANA
09:00 -6.5 -7.1 96 23 3   100.84   -8 LegendNANA
10:00 -6.5 -7.1 96 31 3   100.83   -8 LegendNANA
11:00 -6.4 -6.9 96 34 1   100.79   -7 LegendNANA
12:00 -6.3 -6.9 96 12 4   100.75   -8 LegendNANA
13:00 -5.3 -5.8 96 18 2   100.73   -6 LegendNANA
14:00 -7.3 -8.1 94 21 13   100.70   -13 LegendNANA
15:00 -8.1 -9.2 91 21 19   100.68   -15 LegendNANA
16:00 -6.9 -9.0 86 23 24   100.67   -15 LegendNANA
17:00 -7.4 -10.5 78 23 16   100.67   -14 LegendNANA
18:00 -7.4 -11.3 74 26 12   100.64   -13 LegendNANA
19:00 -7.5 -11.4 73 16 4   100.59   -10 LegendNANA
20:00 -8.3 -12.7 71 31 5   100.58   -11 LegendNANA
21:00 -8.1 -13.5 65 26 7   100.54   -12 LegendNANA
22:00 -8.7 -14.2 64 22 13   100.51   -15 LegendNANA
23:00 -10.3 -12.2 86 14 5   100.50   -13 LegendNANA

Notes on Data Quality.

Legend

  • E = Estimated
  • M = Missing
  • NA = Not Available
  • ‡ = Partner data that is not subject to review by the National Climate Archives
Date modified: